STARLINK-1196 (45103 NORAD) Tracking and Keplerian Element Data

This shows tracking and keplerian element data for the satellite.

Feedback or suggestion? Click here.




ElementValue
Catalog45103
NameSTARLINK-1196
Epoch Orbit2527
Epoch Day189.91668981
Epoch Year2020
RAAN182.67
Inclination52.9994
Eccentricity0.0001411
Argument of Perigee86.2698
Mean Anonmoly281.2424
Mean Motion15.05603365
Decay Rate-0.00014337
L11 45103U 20006BM 20189.91668981 -.00014337 00000-0 -96620-3 0 9995
L22 45103 52.9994 182.6700 0001411 86.2698 281.2424 15.05603365 25276

Live tracking and technical data element details for STARLINK-1196 (NORAD 45103). STARLINK-1196 can be tracked NOW for your location showing map with azimuth and elevation plus other details from your city location.

Track the satellite on the map from your city or location and see movement details for azimuth, elevation, latitude, longitude, range, height, and movement on the map or in text.







IsCatalogInMostPopularTable: catalog: 45103, numindb: 37
Update: records affected: 1



GetName: 45103 STARLINK-1196

Hit Count: updated at: Thu, 09 Jul 2020 00:56:48 GMT